GW5877 Weather Reports


time (UTC)temp
C
wind
direction
speed
KPH
gust
KPH
rain 1hr
cm
rain 24hr
cm
rain mn
cm
humidity
%
barometer
mb
20260506015414 10 197 1.6 1.6 0.00 0.00 0.00 80 1016.3
20260506014910 10 87 3.2 3.2 0.00 0.00 0.00 80 1016.1
20260506014407 10 334 6.4 9.7 0.00 0.00 0.00 80 1016.1
20260506013904 10 289 1.6 3.2 0.00 0.00 0.00 80 1015.8
20260506013402 10 53 4.8 6.4 0.00 0.00 0.00 79 1015.8
20260506012857 10 292 6.4 9.7 0.00 0.00 0.00 79 1015.8
20260506012354 10 227 0.0 0.0 0.00 0.00 0.00 78 1015.8
20260506011851 10 24 4.8 6.4 0.00 0.00 0.00 78 1015.6
20260506011348 10 265 4.8 6.4 0.00 0.00 0.00 79 1015.5
20260506010845 10 112 1.6 1.6 0.00 0.00 0.00 78 1015.5
20260506010344 10 302 1.6 1.6 0.00 0.00 0.00 78 1015.3
20260506005840 10 240 1.6 3.2 0.00 0.00 0.00 78 1014.9
20260506005337 10 338 3.2 3.2 0.00 0.00 0.00 78 1015.1
20260506004833 10 342 6.4 6.4 0.00 0.00 0.00 78 1014.6
20260506004331 10 326 1.6 3.2 0.00 0.00 0.00 78 1014.5
20260506003827 10 249 9.7 12.9 0.00 0.00 0.00 77 1014.4
20260506003323 10 351 3.2 3.2 0.00 0.00 0.00 77 1014.5
20260506002819 10 31 8.0 11.3 0.00 0.00 0.00 77 1014.5
20260506002316 10 242 1.6 1.6 0.00 0.00 0.00 77 1014.4
20260506001812 10 65 6.4 9.7 0.00 0.00 0.00 76 1014.4
20260506001309 10 224 3.2 3.2 0.00 0.00 0.00 76 1014.4
20260506000806 10 78 3.2 3.2 0.00 0.00 0.00 76 1014.5
20260506000304 10 344 1.6 1.6 0.00 0.00 0.00 75 1014.4
20260505235800 10 339 3.2 4.8 0.00 0.00 0.00 75 1014.2
20260505235258 11 270 0.0 1.6 0.00 0.00 0.00 75 1014.5
20260505234755 11 17 3.2 4.8 0.00 0.00 0.00 74 1013.9
20260505234253 11 180 1.6 1.6 0.00 0.00 0.00 73 1014.3
20260505233749 11 282 1.6 3.2 0.00 0.00 0.00 73 1014.3
20260505233247 11 212 6.4 9.7 0.00 0.00 0.00 72 1014.5
20260505232744 11 342 4.8 6.4 0.00 0.00 0.00 72 1014.7
20260505232241 11 288 3.2 4.8 0.00 0.00 0.00 72 1014.6
20260505231737 11 359 6.4 16.1 0.00 0.00 0.00 72 1014.7
20260505231237 11 344 3.2 4.8 0.00 0.00 0.00 72 1014.3
20260505230735 11 285 3.2 4.8 0.00 0.00 0.00 72 1014.1
20260505230231 11 71 6.4 11.3 0.00 0.00 0.00 71 1013.8
20260505225727 11 166 6.4 9.7 0.00 0.00 0.00 71 1013.9
20260505225225 11 29 3.2 6.4 0.00 0.00 0.00 71 1014.1
20260505224720 11 274 4.8 9.7 0.00 0.00 0.00 71 1013.9
20260505224218 11 3 4.8 6.4 0.00 0.00 0.00 71 1013.9
20260505223715 11 336 3.2 4.8 0.00 0.00 0.00 71 1013.8
20260505223211 11 148 3.2 3.2 0.00 0.00 0.00 71 1013.9
20260505222707 11 306 6.4 11.3 0.00 0.00 0.00 71 1013.8
20260505222203 11 315 3.2 4.8 0.00 0.00 0.00 71 1013.7
20260505221701 11 273 0.0 0.0 0.00 0.00 0.00 72 1013.5
20260505221157 11 132 1.6 3.2 0.00 0.00 0.00 71 1013.5
20260505220654 12 211 4.8 11.3 0.00 0.00 0.00 71 1013.4
20260505220152 12 315 6.4 6.4 0.00 0.00 0.00 71 1013.5
20260505215650 12 35 3.2 9.7 0.00 0.00 0.00 71 1013.6
20260505215147 12 320 3.2 6.4 0.00 0.00 0.00 71 1013.6
20260505214645 12 343 6.4 11.3 0.00 0.00 0.00 70 1013.2
20260505214142 12 234 1.6 1.6 0.00 0.00 0.00 70 1012.7
20260505213640 12 88 6.4 9.7 0.00 0.00 0.00 70 1012.6
20260505213136 12 219 6.4 12.9 0.00 0.00 0.00 70 1012.9
20260505212632 12 197 6.4 9.7 0.00 0.00 0.00 70 1013.0
20260505212130 12 41 8.0 12.9 0.00 0.00 0.00 70 1013.0
20260505211627 12 236 1.6 1.6 0.00 0.00 0.00 69 1013.1
20260505211124 12 326 0.0 1.6 0.00 0.00 0.00 70 1012.4
20260505210621 12 63 4.8 6.4 0.00 0.00 0.00 69 1012.8
20260505210117 12 3 6.4 9.7 0.00 0.00 0.00 69 1012.5
20260505205615 12 337 8.0 11.3 0.00 0.00 0.00 71 1012.4
20260505205113 12 347 1.6 1.6 0.00 0.00 0.00 71 1013.0
20260505204609 12 79 3.2 4.8 0.00 0.00 0.00 71 1013.5
20260505204107 12 92 1.6 3.2 0.00 0.00 0.00 71 1013.7
20260505203604 12 27 6.4 12.9 0.00 0.00 0.00 71 1013.3
20260505203101 12 324 6.4 9.7 0.00 0.00 0.00 70 1012.9
20260505202556 12 356 8.0 14.5 0.00 0.00 0.00 71 1012.8
20260505202053 12 48 3.2 9.7 0.00 0.00 0.00 71 1012.6
20260505201549 12 301 6.4 11.3 0.00 0.00 0.00 71 1012.6
20260505201047 12 86 4.8 6.4 0.00 0.00 0.00 71 1012.5
20260505200545 12 90 11.3 24.1 0.00 0.00 0.00 71 1012.4
20260505200041 12 81 3.2 4.8 0.00 0.00 0.00 72 1012.6
20260505195537 12 297 3.2 4.8 0.00 0.00 0.00 72 1012.4
20260505195035 12 4 6.4 9.7 0.00 0.00 0.00 74 1012.6
20260505194532 12 14 9.7 14.5 0.00 0.00 0.00 74 1012.8
20260505194027 12 36 4.8 6.4 0.00 0.00 0.00 75 1012.6
20260505193525 12 227 4.8 12.9 0.00 0.00 0.00 74 1012.4
20260505193022 12 337 3.2 3.2 0.00 0.00 0.00 75 1012.5
20260505192521 12 229 6.4 6.4 0.00 0.00 0.00 75 1012.4
20260505192018 12 84 3.2 4.8 0.00 0.00 0.00 76 1012.4
20260505191516 12 21 6.4 11.3 0.00 0.00 0.00 76 1012.3
20260505191014 12 254 3.2 3.2 0.00 0.00 0.00 77 1012.3
20260505190508 12 333 6.4 12.9 0.00 0.00 0.00 77 1012.1
20260505190004 12 334 6.4 11.3 0.00 0.00 0.00 77 1012.3
20260505185501 12 296 1.6 1.6 0.00 0.00 0.00 77 1012.3
20260505184957 13 238 1.6 3.2 0.00 0.00 0.00 77 1012.0
20260505184455 13 229 3.2 6.4 0.00 0.00 0.00 77 1012.0
20260505183951 13 342 6.4 9.7 0.00 0.00 0.00 77 1012.0
20260505183448 13 314 8.0 14.5 0.00 0.00 0.00 77 1012.0
20260505182944 13 331 8.0 12.9 0.00 0.00 0.00 77 1012.0
20260505182442 13 329 9.7 17.7 0.00 0.00 0.00 76 1011.9
20260505181938 13 221 8.0 12.9 0.00 0.00 0.00 76 1011.9
20260505181435 13 32 1.6 3.2 0.00 0.00 0.00 76 1011.8
20260505180932 13 305 4.8 9.7 0.00 0.00 0.00 75 1011.5
20260505180428 13 46 3.2 4.8 0.00 0.00 0.00 75 1011.8
20260505175925 13 61 3.2 4.8 0.00 0.00 0.00 75 1011.5
20260505175421 13 10 4.8 6.4 0.00 0.00 0.00 76 1011.2
20260505174918 13 232 3.2 6.4 0.00 0.00 0.00 76 1011.2
20260505174416 13 320 4.8 9.7 0.00 0.00 0.00 76 1011.1
20260505173912 13 325 8.0 14.5 0.00 0.00 0.00 77 1011.0
20260505173408 13 51 3.2 4.8 0.00 0.00 0.00 77 1011.0
20260505172905 13 9 1.6 3.2 0.00 0.00 0.00 77 1010.8
20260505172403 13 0 8.0 11.3 0.00 0.00 0.00 77 1010.7
20260505171902 13 25 8.0 16.1 0.00 0.00 0.00 77 1010.9
20260505171359 13 41 3.2 4.8 0.00 0.00 0.00 78 1010.4
20260505170856 13 18 6.4 11.3 0.00 0.00 0.00 78 1010.6
20260505170353 13 335 3.2 3.2 0.00 0.00 0.00 78 1010.6
20260505165848 13 316 9.7 16.1 0.00 0.00 0.00 79 1010.6
20260505165344 13 5 6.4 6.4 0.00 0.00 0.00 78 1010.5
20260505164840 13 20 6.4 12.9 0.00 0.00 0.00 78 1010.4
20260505164337 14 105 4.8 4.8 0.00 0.00 0.00 78 1010.3
20260505163835 13 97 3.2 3.2 0.00 0.00 0.00 79 1009.8
20260505163334 13 211 12.9 17.7 0.00 0.00 0.00 80 1009.9
20260505162832 13 2 8.0 16.1 0.00 0.00 0.00 80 1009.7
20260505162327 13 83 4.8 4.8 0.00 0.00 0.00 80 1009.8
20260505161825 14 189 6.4 11.3 0.00 0.00 0.00 80 1009.5
20260505161322 14 1 12.9 22.5 0.00 0.00 0.00 80 1009.2
20260505160819 14 29 4.8 9.7 0.00 0.00 0.00 80 1008.9
20260505160317 14 357 0.0 1.6 0.00 0.00 0.00 80 1008.8
20260505153256 16 238 6.4 6.4 0.00 0.00 0.00 81 1008.0
20260505152753 16 2 6.4 11.3 0.00 0.00 0.00 81 1008.2
20260505152250 16 237 3.2 4.8 0.00 0.00 0.00 81 1007.8
20260505151749 16 15 4.8 6.4 0.00 0.00 0.00 81 1007.8
20260505151247 16 59 3.2 4.8 0.00 0.00 0.00 80 1007.5
20260505150744 17 33 8.0 14.5 0.00 0.00 0.00 80 1007.4
20260505150241 17 235 4.8 9.7 0.00 0.00 0.00 79 1007.4
20260505140211 20 121 1.6 1.6 0.00 0.00 0.00 82 1005.6
20260505130135 20 230 3.2 4.8 0.00 0.00 0.00 83 1005.5
20260505124625 20 72 4.8 4.8 0.00 0.00 0.00 82 1005.3
20260505124121 20 232 0.0 0.0 0.00 0.00 0.00 81 1005.2
20260505123617 20 39 1.6 1.6 0.00 0.00 0.00 80 1005.1
20260505123114 20 234 1.6 1.6 0.00 0.00 0.00 80 1005.3
20260505122611 20 207 0.0 0.0 0.00 0.00 0.00 80 1005.2
20260505122108 20 236 0.0 0.0 0.00 0.00 0.00 79 1005.0
20260505121604 20 226 0.0 0.0 0.00 0.00 0.00 79 1005.0
20260505121101 20 264 1.6 3.2 0.00 0.00 0.00 79 1005.1
20260505120557 20 215 0.0 1.6 0.00 0.00 0.00 78 1004.8
20260505120053 20 236 0.0 0.0 0.00 0.00 0.00 78 1004.7
20260505115548 20 238 0.0 0.0 0.00 0.00 0.00 77 1004.8
20260505115046 21 233 0.0 0.0 0.00 0.00 0.00 76 1004.7
20260505114542 21 226 0.0 0.0 0.00 0.00 0.00 75 1004.5
20260505114039 21 234 0.0 1.6 0.00 0.00 0.00 74 1004.6
20260505113535 21 234 0.0 0.0 0.00 0.00 0.00 74 1004.2
20260505113032 21 194 0.0 0.0 0.00 0.00 0.00 74 1004.3
20260505112523 21 319 1.6 3.2 0.00 0.00 0.00 73 1004.0
20260505112021 21 253 1.6 3.2 0.00 0.00 0.00 72 1003.8
20260505111519 22 191 1.6 1.6 0.00 0.00 0.00 72 1003.5
20260505111016 22 224 0.0 0.0 0.00 0.00 0.00 72 1003.6
20260505110513 22 228 0.0 0.0 0.00 0.00 0.00 72 1003.6
20260505101945 22 190 4.8 4.8 0.00 0.00 0.00 71 1002.7
20260505101443 22 175 1.6 3.2 0.00 0.00 0.00 71 1002.5
20260505100939 22 168 1.6 1.6 0.00 0.00 0.00 71 1002.5
20260505100437 22 233 1.6 1.6 0.00 0.00 0.00 71 1002.5
20260505095933 22 105 0.0 1.6 0.00 0.00 0.00 71 1002.6
20260505095430 22 145 0.0 1.6 0.00 0.00 0.00 71 1002.4
20260505094926 22 168 4.8 9.7 0.00 0.00 0.00 71 1002.3
20260505094423 22 160 4.8 6.4 0.00 0.00 0.00 71 1002.5
20260505093919 22 216 3.2 3.2 0.00 0.00 0.00 71 1002.3
20260505093416 22 217 3.2 4.8 0.00 0.00 0.00 71 1002.3
20260505092913 22 109 3.2 3.2 0.00 0.00 0.00 71 1002.5
20260505092411 22 114 3.2 4.8 0.00 0.00 0.00 71 1002.5
20260505091908 22 117 3.2 6.4 0.00 0.00 0.00 71 1002.3
20260505091406 22 193 3.2 4.8 0.00 0.00 0.00 71 1002.4
20260505090904 22 291 4.8 6.4 0.00 0.00 0.00 71 1002.6
20260505090402 22 230 1.6 3.2 0.00 0.00 0.00 71 1002.4
20260505085859 22 53 3.2 3.2 0.00 0.00 0.00 71 1002.4
20260505085357 22 218 1.6 3.2 0.00 0.00 0.00 70 1002.6
20260505084854 22 215 1.6 3.2 0.00 0.00 0.00 70 1002.7
20260505084352 22 224 1.6 1.6 0.00 0.00 0.00 71 1002.5
20260505083850 22 197 1.6 3.2 0.00 0.00 0.00 71 1002.7
20260505083347 22 205 1.6 3.2 0.00 0.00 0.00 71 1002.8
20260505082843 22 202 1.6 1.6 0.00 0.00 0.00 71 1002.9
20260505082339 22 183 3.2 3.2 0.00 0.00 0.00 71 1003.1
20260505081836 22 192 3.2 3.2 0.00 0.00 0.00 71 1002.9
20260505081333 22 125 3.2 3.2 0.00 0.00 0.00 71 1003.2
20260505080830 22 118 1.6 3.2 0.00 0.00 0.00 71 1003.1
20260505080325 22 134 3.2 3.2 0.00 0.00 0.00 71 1002.9
20260505075821 22 186 3.2 4.8 0.00 0.00 0.00 71 1003.2
20260505075319 22 110 3.2 6.4 0.00 0.00 0.00 71 1003.3
20260505074816 22 123 6.4 12.9 0.00 0.00 0.00 71 1003.3
20260505074313 22 212 0.0 1.6 0.00 0.00 0.00 71 1003.4
20260505073810 22 211 1.6 1.6 0.00 0.00 0.00 71 1003.3
20260505073308 22 217 1.6 3.2 0.00 0.00 0.00 71 1003.4
20260505072805 22 193 6.4 6.4 0.00 0.00 0.00 71 1003.3
20260505072301 22 230 6.4 12.9 0.00 0.00 0.00 71 1003.6
20260505071756 22 172 3.2 4.8 0.00 0.00 0.00 71 1003.5
20260505071253 22 179 0.0 0.0 0.00 0.00 0.00 71 1003.5
20260505070751 22 221 1.6 1.6 0.00 0.00 0.00 71 1003.6
20260505070247 22 55 8.0 14.5 0.00 0.00 0.00 70 1004.1
20260505065743 22 296 6.4 9.7 0.00 0.00 0.00 70 1004.0
20260505065240 22 129 1.6 1.6 0.00 0.00 0.00 70 1004.1
20260505064737 23 239 4.8 9.7 0.00 0.00 0.00 70 1004.0
20260505064235 23 261 4.8 6.4 0.00 0.00 0.00 69 1004.1
20260505063732 23 196 1.6 1.6 0.00 0.00 0.00 70 1003.9
20260505063228 23 126 6.4 12.9 0.00 0.00 0.00 69 1004.1
20260505062724 23 145 6.4 9.7 0.00 0.00 0.00 70 1004.3
20260505062222 23 210 6.4 9.7 0.00 0.00 0.00 69 1004.2
20260505061719 23 160 3.2 3.2 0.00 0.00 0.00 69 1004.4
20260505061217 23 105 3.2 4.8 0.00 0.00 0.00 69 1004.3
20260505060714 23 128 6.4 9.7 0.00 0.00 0.00 69 1004.2
20260505060211 22 106 4.8 4.8 0.00 0.00 0.00 70 1004.3
20260505055706 22 155 1.6 3.2 0.00 0.00 0.00 70 1004.4
20260505055203 23 222 3.2 4.8 0.00 0.00 0.00 69 1004.5
20260505054700 23 94 1.6 3.2 0.00 0.00 0.00 69 1004.6
20260505054158 23 136 4.8 4.8 0.00 0.00 0.00 69 1004.5
20260505053656 23 194 3.2 9.7 0.00 0.00 0.00 69 1004.7
20260505053152 23 116 1.6 1.6 0.00 0.00 0.00 69 1004.6
20260505052649 23 182 4.8 4.8 0.00 0.00 0.00 69 1004.6
20260505052146 23 171 1.6 3.2 0.00 0.00 0.00 69 1004.5
20260505051643 23 208 3.2 3.2 0.00 0.00 0.00 68 1004.8
20260505051142 23 230 3.2 4.8 0.00 0.00 0.00 68 1004.7
20260505050639 23 164 3.2 3.2 0.00 0.00 0.00 68 1005.0
20260505050137 23 170 6.4 9.7 0.00 0.00 0.00 68 1004.9
20260505041607 23 211 3.2 4.8 0.00 0.00 0.00 67 1005.3
20260505041104 23 141 4.8 6.4 0.00 0.00 0.00 67 1005.2
20260505040601 23 137 4.8 11.3 0.00 0.00 0.00 67 1005.4
20260505040058 23 305 4.8 9.7 0.00 0.00 0.00 67 1005.6
20260505035554 23 256 3.2 3.2 0.00 0.00 0.00 66 1005.4
20260505035051 23 161 3.2 6.4 0.00 0.00 0.00 66 1005.4
20260505034547 23 24 1.6 1.6 0.00 0.00 0.00 66 1005.3
20260505034044 24 163 4.8 6.4 0.00 0.00 0.00 65 1005.4
20260505033541 24 142 8.0 11.3 0.00 0.00 0.00 65 1005.4
20260505033040 24 123 6.4 9.7 0.00 0.00 0.00 65 1005.2
20260505032537 24 113 1.6 3.2 0.00 0.00 0.00 65 1005.2
20260505032033 24 128 1.6 1.6 0.00 0.00 0.00 65 1005.1
20260505031531 24 174 4.8 6.4 0.00 0.00 0.00 64 1005.2
20260505031027 24 78 6.4 9.7 0.00 0.00 0.00 64 1005.0
20260505030524 24 144 3.2 9.7 0.00 0.00 0.00 64 1005.1
20260505030020 24 150 3.2 11.3 0.00 0.00 0.00 64 1005.3
20260505025516 24 217 3.2 6.4 0.00 0.00 0.00 63 1005.0
20260505025015 25 169 4.8 6.4 0.00 0.00 0.00 63 1004.9
20260505024511 25 120 6.4 6.4 0.00 0.00 0.00 63 1004.7
20260505024009 25 194 6.4 9.7 0.00 0.00 0.00 63 1004.6
20260505023505 25 124 6.4 11.3 0.00 0.00 0.00 63 1004.8
20260505023003 25 84 8.0 11.3 0.00 0.00 0.00 62 1004.9
20260505022501 25 169 11.3 17.7 0.00 0.00 0.00 62 1004.7
20260505021958 25 139 11.3 14.5 0.00 0.00 0.00 62 1004.6
20260505021454 25 109 6.4 12.9 0.00 0.00 0.00 62 1004.6
20260505020950 25 242 6.4 9.7 0.00 0.00 0.00 62 1004.3
20260505020445 25 211 3.2 3.2 0.00 0.00 0.00 61 1004.5
20260505015942 25 135 6.4 12.9 0.00 0.00 0.00 61 1004.7